Find Starlink 38335

NORAD ID: 100550 Int'l Des: 2026-200 Owner: SPXS Country: US Constellation: starlink operational

Current View

Loading 3D Globe...

About Starlink 38335

Starlink 38335 (NORAD 100550) is a starlink constellation satellite launched Sep 2, 2026 by SPXS of US. with a mass of 575.00 kg.

Upcoming Passes

Passes for default location (London). Set your location on the main map for personalized predictions.

Altitude History

Loading altitude history...

Two-Line Element Set

1 A0550U 26200S 26254.17889977 -.01564779 00000-0 -91567-2 0 9996
2 A0550 69.9969 161.8861 0005561 183.2508 176.8658 15.80933419 1415
Epoch: Sep 11, 2026 • Age: 19 hours

Current Status

Altitude 333.5 km
Apogee / Perigee N/A
Velocity 7.71 km/s
Sub-Earth Point 9.74°N, 3.62°W
Launch Date Sep 2, 2026
Age 9 days
Type internet

Technical Details

Classification Payload
Mass 575.00 kg
Dry Mass 530.00 kg
Total Mass 575.00 kg
Length 0.30 m
Diameter 4.10 m
Span 29.00 m
Shape Box + pan
Manufacturer SPXS
Bus Type Starlink V2MO
Phase Status In Orbit
Owner/State SPXS/US

Most Searched